Theta_e
287 281 279 284 284 284 282 281 280 282 286 284 283 284 286 286 285 286 287 289 292 293 295 296 295 294 294 292 291 289 288 288 288 287 286 286 285 285 285 286 287 287 288 292
283 280 284 287 286 285 284 281 281 283 284 282 281 281 284 285 286 286 289 289 291 293 293 294 294 293 293 291 290 288 288 288 288 288 287 286 285 285 285 286 286 286 288 290
281 282 286 285 283 282 280 279 279 280 281 280 277 279 281 283 285 288 288 291 291 293 292 293 292 292 292 290 289 288 288 288 288 288 288 287 285 284 283 284 284 285 286 288
282 284 282 281 281 282 277 280 281 281 278 273 277 271 277 282 284 283 286 287 289 291 293 293 292 291 291 290 289 289 288 288 288 288 288 286 285 283 283 283 284 284 286 286
279 279 278 279 279 282 279 281 279 279 276 274 274 272 275 278 280 284 283 284 285 288 293 292 291 292 291 290 288 288 287 287 288 288 288 286 284 283 284 284 282 283 284 285
277 279 279 280 279 280 282 279 278 276 274 267 273 274 273 277 282 281 282 284 284 285 287 291 291 291 289 289 287 287 286 287 287 287 286 286 284 283 283 282 282 282 282 283
276 276 277 280 277 279 279 275 271 267 264 268 273 272 278 282 283 282 281 282 283 283 284 287 287 288 287 286 286 286 286 285 286 286 285 285 284 284 283 282 282 282 281 281
273 272 275 278 277 276 276 276 272 264 268 272 274 272 277 283 283 281 282 281 282 281 283 286 287 287 287 287 286 286 285 285 285 285 285 285 284 284 284 283 283 282 282 282
273 274 275 276 276 276 275 273 277 269 266 266 272 275 280 281 281 282 281 281 281 282 282 284 285 286 287 287 286 286 285 285 285 285 285 285 285 284 284 284 284 283 283 283
279 271 275 274 275 275 275 277 271 270 262 262 272 272 274 277 279 280 280 281 282 282 283 282 285 286 287 287 286 286 285 285 285 285 285 285 285 285 285 284 283 283 283 284
278 277 272 274 271 273 272 272 272 274 273 267 266 272 279 280 281 280 280 282 283 283 283 282 283 285 287 287 286 285 285 285 284 284 285 285 284 284 284 284 284 284 283 283
280 277 266 270 271 273 273 273 274 269 267 270 270 273 282 281 281 282 283 283 283 283 284 282 282 284 284 285 285 285 284 284 284 285 284 284 284 284 283 283 283 282 282 282
279 275 265 270 270 271 266 274 276 277 273 267 267 273 279 280 279 281 282 282 284 282 282 282 282 283 283 284 285 285 284 284 284 284 284 284 283 283 283 283 282 282 281 281
283 273 272 271 272 269 265 268 275 274 264 269 274 276 280 280 282 283 283 283 283 282 281 281 281 281 282 283 284 284 284 285 284 284 284 283 283 283 283 283 283 282 281 281
279 269 269 272 275 271 270 266 269 269 272 268 273 273 277 279 280 281 283 284 282 281 281 281 280 281 281 281 283 284 284 284 284 283 283 282 283 283 283 282 282 281 281 280
276 270 269 270 275 275 271 271 271 273 274 273 274 273 281 282 282 280 281 282 282 282 281 280 280 280 281 281 282 283 283 283 283 282 282 282 282 282 282 281 281 281 280 280
274 275 274 271 274 274 271 275 271 275 272 276 272 278 283 280 280 280 282 281 279 278 278 277 278 279 280 281 282 282 282 281 282 281 281 281 281 281 281 281 281 280 279 279
274 275 274 269 269 265 274 274 274 277 279 279 278 280 280 279 281 279 275 275 276 276 276 276 276 276 279 280 280 280 280 281 281 280 280 281 281 280 280 280 280 279 278 276
280 276 273 269 267 271 275 274 272 272 274 279 279 281 280 278 275 275 274 274 273 273 275 274 274 274 275 277 279 279 279 280 280 279 280 280 280 279 279 277 276 275 275 276
279 279 275 272 268 262 270 275 276 275 270 276 279 279 277 275 271 274 270 272 272 272 272 271 272 273 273 274 277 277 275 275 274 276 277 278 279 277 275 274 273 274 274 272
270 273 272 272 270 267 274 276 276 268 272 277 280 279 278 275 275 271 271 270 271 270 271 270 270 270 270 272 273 271 271 271 272 273 274 274 274 273 272 271 271 270 270 269
269 270 270 273 270 268 276 276 274 277 277 279 277 277 277 276 272 270 270 269 269 267 268 268 267 267 267 269 270 268 268 269 271 271 271 271 272 272 271 269 269 269 268 267
269 273 271 273 273 275 276 278 279 279 280 279 279 279 278 276 275 271 268 267 264 265 267 266 265 264 264 265 266 266 267 268 269 269 269 269 270 270 270 268 267 267 267 266
274 275 274 275 274 274 278 281 280 280 280 280 279 278 277 275 274 271 268 267 266 266 264 265 264 263 263 265 266 266 267 268 268 267 267 268 268 268 269 269 268 267 266 266
271 273 272 272 274 277 277 279 281 281 281 280 278 278 277 275 273 271 269 267 266 266 265 264 263 263 263 264 264 265 266 267 266 266 267 267 267 267 267 268 268 267 268 268
271 270 268 269 274 275 276 278 278 279 279 279 278 275 275 275 272 269 267 266 266 264 264 263 263 262 262 263 264 265 266 266 266 265 266 267 267 268 269 269 270 274 273 272
Wind_Speed
4 5 11 21 6 4 3 4 7 5 5 6 9 15 14 10 6 11 12 12 15 19 16 15 15 16 16 16 17 16 14 10 9 7 7 4 5 4 3 4 6 5 4 6
3 14 9 7 8 10 10 12 13 5 3 2 8 14 11 9 10 12 18 16 20 14 13 16 17 17 19 18 17 17 16 14 11 8 5 4 5 2 3 4 5 5 5 5
8 4 4 9 5 6 5 6 4 7 2 4 5 13 9 10 9 14 12 21 16 19 18 18 17 19 16 18 18 17 17 15 12 11 7 5 4 4 3 3 3 4 5 5
9 6 5 3 6 8 5 2 3 5 2 6 3 10 4 8 13 7 16 17 15 15 14 17 19 19 19 16 16 17 15 15 12 13 11 14 10 9 4 4 4 4 5 5
8 6 5 5 6 7 6 2 3 1 2 4 1 3 7 4 6 16 7 10 11 14 15 18 20 20 17 16 17 16 16 16 14 14 12 11 9 4 5 6 7 5 5 6
2 1 2 6 3 2 6 4 5 5 4 4 10 9 4 6 9 3 2 7 4 8 10 11 12 13 14 13 15 15 17 16 15 14 13 14 12 9 9 7 7 4 4 4
2 3 1 2 5 4 3 7 1 4 3 10 3 5 13 10 10 2 1 4 7 9 6 8 12 14 13 15 15 15 17 17 15 15 14 13 12 11 13 12 9 9 5 3
9 5 8 4 4 7 7 8 8 9 5 5 2 8 9 11 3 2 6 5 6 7 2 6 9 13 14 15 16 17 16 16 16 16 14 12 9 8 9 10 9 7 6 6
7 3 1 4 2 2 6 6 4 6 3 4 6 8 11 5 4 8 7 7 8 7 4 7 7 9 13 15 17 18 17 16 17 17 13 13 10 12 11 11 10 7 7 7
4 2 2 2 1 1 2 2 4 3 3 5 5 5 8 3 7 5 5 5 4 5 6 4 7 10 12 13 14 15 16 18 17 15 13 12 11 12 11 11 11 11 10 11
3 4 0 3 6 9 3 2 1 3 5 6 2 8 9 8 8 6 5 4 3 4 5 5 5 8 11 11 14 15 14 16 14 15 13 13 10 11 11 11 11 11 11 11
4 4 5 8 2 3 1 6 7 6 6 4 4 13 5 7 8 7 5 4 2 4 6 6 8 7 10 13 14 15 14 15 15 15 14 13 11 11 11 10 10 9 11 10
3 3 3 5 5 5 2 5 4 3 3 7 7 10 1 7 3 2 1 0 5 6 8 8 6 7 9 10 12 13 14 14 14 15 14 13 12 12 12 11 10 10 10 9
3 2 8 9 6 6 4 3 5 5 4 4 16 18 16 12 16 14 9 11 12 10 9 7 7 8 7 9 12 12 12 13 14 15 15 15 15 14 12 12 11 11 11 11
3 6 4 3 4 4 7 6 6 9 9 9 2 12 9 3 7 13 15 16 11 9 9 8 8 8 8 8 10 10 12 13 14 15 15 15 12 12 11 11 11 10 10 9
1 3 2 4 5 8 7 11 10 14 13 15 14 29 23 14 13 9 8 7 8 8 8 9 9 9 8 11 13 12 12 12 14 14 14 13 13 12 12 12 12 11 10 10
2 5 4 8 3 3 10 15 17 12 7 15 17 28 17 8 6 5 6 6 6 8 9 11 11 12 10 9 11 14 13 11 13 12 11 12 13 13 13 12 13 12 11 11
6 5 3 2 2 7 8 2 7 19 20 18 14 18 10 5 6 2 2 0 3 7 9 10 11 13 10 4 6 7 9 13 13 11 11 12 12 12 12 13 12 11 10 10
12 7 3 5 7 10 14 5 7 10 10 18 19 20 10 4 3 4 1 1 2 4 5 6 8 9 9 7 3 8 7 10 11 11 12 11 12 12 13 12 12 11 12 11
8 13 8 4 5 10 7 5 4 5 7 3 8 7 4 2 2 5 2 1 2 4 4 7 9 8 10 12 6 11 8 9 8 7 9 10 12 14 14 14 13 10 12 12
3 5 15 13 7 9 10 5 3 8 7 1 6 6 6 3 5 3 5 1 2 4 6 5 7 8 8 8 7 12 10 10 8 11 13 13 13 15 15 15 13 13 13 13
8 9 6 7 7 13 5 4 6 6 2 4 4 4 4 3 3 3 4 3 3 5 6 7 6 7 8 8 7 10 11 7 9 12 15 15 14 12 12 16 13 13 14 14
4 8 6 8 7 4 4 3 1 2 4 2 3 3 5 3 5 7 5 4 2 4 5 6 5 6 7 7 6 11 6 8 11 13 14 14 14 13 13 15 14 12 12 11
5 7 2 1 5 5 3 5 3 1 3 3 1 5 6 5 7 6 6 6 4 4 4 4 5 6 7 8 9 8 8 9 13 15 14 13 14 14 12 10 9 10 9 9
6 5 3 9 10 9 5 4 6 10 7 2 1 1 3 4 4 5 5 5 5 6 6 5 6 7 7 7 8 8 8 11 14 14 13 13 11 13 13 11 9 9 8 9
6 12 4 10 9 8 18 15 3 4 10 9 5 3 3 5 7 6 7 7 7 7 7 7 8 8 7 8 9 8 8 11 14 14 11 10 11 11 12 13 14 25 23 23
Wind_Direction
213 157 201 207 206 258 250 238 230 261 223 175 236 251 255 256 225 239 236 227 219 217 207 191 179 170 165 167 166 166 159 165 158 154 152 148 155 144 138 149 149 156 144 142
152 231 214 186 209 220 244 255 265 286 135 181 277 263 244 241 235 220 232 231 226 223 196 193 183 177 178 174 170 168 170 169 169 163 160 137 144 151 141 148 144 155 146 149
181 222 176 204 223 191 215 210 202 237 311 239 295 278 257 259 266 257 239 237 230 211 195 193 186 187 180 178 174 173 172 172 170 168 156 135 101 102 120 158 145 165 146 151
230 221 158 146 202 163 241 182 207 249 90 247 109 291 257 256 267 248 241 235 231 210 200 194 188 186 185 180 170 169 169 170 177 176 176 170 173 168 176 156 147 154 154 144
227 166 169 180 198 162 224 131 105 94 161 336 118 295 262 241 262 257 294 255 228 209 195 192 192 191 183 172 173 170 167 174 180 183 181 172 167 165 143 145 146 153 149 140
171 278 174 176 77 57 149 81 44 47 77 302 186 179 224 213 220 266 355 344 254 219 210 199 186 175 175 169 168 169 170 180 180 178 177 180 170 161 149 156 159 159 146 139
128 216 132 144 96 12 112 92 15 354 6 236 218 199 261 281 268 256 353 351 341 336 210 173 165 174 170 173 173 173 175 179 178 181 180 176 173 173 167 165 167 160 154 151
173 264 164 182 191 177 181 165 162 199 202 266 310 231 248 232 72 294 44 39 9 16 83 178 184 178 178 177 177 180 180 178 180 181 182 182 171 170 171 168 162 162 160 150
163 233 57 53 19 106 191 203 170 90 58 44 228 287 310 272 88 60 41 41 21 354 317 225 176 178 181 180 184 183 179 183 181 184 180 183 175 168 170 165 159 160 155 157
176 82 17 315 260 40 151 217 99 356 157 241 269 258 228 163 147 120 88 47 14 329 290 294 184 186 190 186 183 184 184 183 182 182 185 186 180 174 163 159 164 166 165 161
129 116 53 51 211 179 152 196 228 136 159 179 240 260 215 190 172 122 146 208 244 293 282 267 222 197 191 178 178 182 182 181 181 180 182 181 176 169 164 167 170 169 162 160
206 125 163 206 319 342 183 187 160 135 238 235 165 261 209 156 145 137 184 238 300 293 276 258 241 193 178 179 179 183 182 183 182 182 180 181 171 168 166 168 167 159 160 158
226 228 68 342 349 1 201 201 200 137 86 216 140 264 65 96 350 160 110 88 256 261 269 248 237 204 191 184 182 184 185 186 181 175 175 178 177 174 172 166 161 156 151 153
168 233 185 214 190 135 179 240 194 143 148 168 230 275 266 323 325 342 331 324 322 307 275 260 254 231 202 190 184 184 186 184 178 175 176 180 183 181 172 165 160 155 154 151
151 228 164 232 162 150 179 173 184 193 207 192 208 263 257 208 295 298 306 303 303 301 302 285 269 249 209 187 186 184 184 180 177 177 178 181 176 170 162 160 155 149 151 151
287 243 93 272 197 198 238 221 201 208 224 249 259 268 271 276 264 284 277 299 305 299 327 330 313 284 235 203 191 182 179 176 176 180 182 171 163 164 163 157 152 146 139 139
206 153 178 250 247 118 283 239 207 216 198 212 227 245 290 281 268 284 301 336 343 339 326 323 315 299 270 216 189 185 175 159 173 174 168 163 163 163 163 154 147 144 142 135
180 176 173 208 78 226 248 215 200 215 233 217 250 260 259 273 282 16 44 222 346 332 332 330 326 320 306 225 174 145 150 162 166 163 162 161 159 157 149 144 140 130 129 127
188 176 205 198 207 297 291 207 159 166 257 218 228 246 262 278 23 224 281 43 359 327 325 326 331 336 342 4 142 128 132 151 155 159 157 156 150 141 136 126 121 118 116 115
221 202 194 163 210 212 247 255 146 116 302 243 176 216 230 79 64 249 219 178 43 12 355 354 344 354 15 1 36 84 80 90 85 102 112 115 124 121 117 117 113 108 107 105
169 217 215 220 225 276 248 243 150 103 232 64 118 133 160 189 198 170 144 46 53 41 13 8 11 20 5 6 49 74 77 78 93 99 94 93 102 109 113 111 111 112 109 105
169 177 205 217 216 249 186 48 167 219 28 107 119 165 156 151 151 128 129 96 51 34 21 19 24 25 5 9 64 81 79 77 85 94 97 100 103 106 108 108 106 107 111 108
233 189 182 197 205 227 256 344 149 153 145 178 114 80 93 163 180 164 149 97 73 56 56 39 45 36 17 20 32 93 83 88 93 91 91 95 97 101 107 113 115 113 114 114
351 13 301 108 303 303 282 310 263 14 61 79 206 156 166 178 172 154 154 168 138 111 87 76 67 53 46 40 60 67 83 91 94 94 94 96 97 99 97 98 103 109 114 115
264 354 333 309 299 323 68 30 15 351 354 43 225 266 272 152 163 149 143 139 132 121 108 96 94 85 71 67 67 72 87 102 99 97 98 97 95 98 98 89 94 93 85 102
214 251 244 275 277 291 288 299 289 285 296 305 283 238 221 166 161 135 132 133 131 125 119 106 100 94 81 80 77 71 87 104 108 105 104 108 109 108 108 110 106 99 101 104